HB9ADJ Weather Reports


Display with metric or nautical units.
time (UTC)temp
F
wind
direction
speed
MPH
gust
MPH
rain 1hr
in
rain 24hr
in
rain mn
in
humidity
%
barometer
mb
20260503053036 55 0 0.0 0.0 0.00 0.00 0.00 84 1017.1
20260503051535 55 0 0.0 1.0 0.00 0.00 0.00 85 1017.1
20260503050036 55 0 0.0 0.0 0.00 0.00 0.00 82 1017.3
20260503044540 56 0 0.0 0.0 0.00 0.00 0.00 80 1017.2
20260503043048 55 0 0.0 0.0 0.00 0.00 0.00 81 1017.3
20260503041533 56 0 0.0 0.0 0.00 0.00 0.00 81 1017.2
20260503040036 55 0 0.0 2.0 0.00 0.00 0.00 82 1017.3
20260503034531 55 0 0.0 1.0 0.00 0.00 0.00 82 1017.3
20260503033038 56 0 0.0 1.0 0.00 0.00 0.00 80 1017.2
20260503031537 56 0 0.0 0.0 0.00 0.00 0.00 80 1017.3
20260503030037 56 0 0.0 0.0 0.00 0.00 0.00 80 1017.1
20260503024538 57 0 0.0 1.0 0.00 0.00 0.00 79 1017.2
20260503023043 57 0 0.0 2.0 0.00 0.00 0.00 78 1017.2
20260503021533 58 309 2.0 4.0 0.00 0.00 0.00 76 1017.1
20260503020039 60 331 4.0 7.0 0.00 0.00 0.00 72 1017.2
20260503014537 60 331 5.0 10.0 0.00 0.00 0.00 70 1017.1
20260503013041 60 7 4.0 8.0 0.00 0.00 0.00 71 1017.0
20260503011542 59 37 2.0 5.0 0.00 0.00 0.00 72 1017.3
20260503010034 58 44 2.0 3.0 0.00 0.00 0.00 76 1017.5
20260503004540 57 22 1.0 3.0 0.00 0.00 0.00 78 1017.4
20260503003046 56 354 0.0 1.0 0.00 0.00 0.00 78 1017.8
20260503001541 55 0 0.0 0.0 0.00 0.00 0.00 81 1017.7
20260503000041 54 0 0.0 1.0 0.00 0.00 0.00 83 1017.7
20260502234543 54 0 0.0 0.0 0.00 0.00 0.00 84 1017.9
20260502233041 54 0 0.0 0.0 0.00 0.00 0.00 83 1018.2
20260502231536 55 0 0.0 0.0 0.00 0.00 0.00 81 1018.3
20260502230037 56 0 0.0 0.0 0.00 0.00 0.00 80 1018.4
20260502224543 56 0 0.0 0.0 0.00 0.00 0.00 80 1018.6
20260502223042 56 0 0.0 0.0 0.00 0.00 0.00 79 1018.6
20260502221533 57 0 0.0 0.0 0.00 0.00 0.00 79 1018.6
20260502220035 57 0 0.0 0.0 0.00 0.00 0.00 79 1018.7
20260502214537 57 0 0.0 0.0 0.00 0.00 0.00 79 1018.8
20260502213031 58 0 0.0 0.0 0.00 0.00 0.00 77 1018.6
20260502211549 58 0 0.0 0.0 0.00 0.00 0.00 77 1018.6
20260502210040 59 0 0.0 0.0 0.00 0.00 0.00 76 1018.7
20260502204534 59 0 0.0 0.0 0.00 0.00 0.00 75 1018.7
20260502203040 60 0 0.0 0.0 0.00 0.00 0.00 74 1018.6
20260502201537 60 0 0.0 0.0 0.00 0.00 0.00 76 1018.5
20260502200036 60 0 0.0 0.0 0.00 0.00 0.00 76 1018.4
20260502194533 61 0 0.0 2.0 0.00 0.00 0.00 75 1018.2
20260502193038 62 0 0.0 0.0 0.00 0.00 0.00 70 1018.2
20260502191531 63 0 0.0 0.0 0.00 0.00 0.00 68 1018.0
20260502190043 64 0 0.0 0.0 0.00 0.00 0.00 67 1017.9
20260502184538 64 0 0.0 0.0 0.00 0.00 0.00 68 1017.8
20260502183035 66 0 0.0 0.0 0.00 0.00 0.00 67 1017.7
20260502181542 68 0 0.0 0.0 0.00 0.00 0.00 64 1017.6
20260502163047 73 7 7.0 12.0 0.00 0.00 0.00 49 1018.0
20260502161534 73 32 7.0 11.0 0.00 0.00 0.00 46 1018.1
20260502151548 73 2 8.0 14.0 0.00 0.00 0.00 52 1018.5
20260502123038 70 334 9.0 15.0 0.00 0.00 0.00 56 1020.4
20260502121538 70 21 10.0 17.0 0.00 0.00 0.00 55 1020.5
20260502114537 70 347 8.0 12.0 0.00 0.00 0.00 57 1021.1
20260502113033 69 340 9.0 14.0 0.00 0.00 0.00 57 1021.1
20260502111538 69 42 8.0 13.0 0.00 0.00 0.00 56 1021.4
20260502110033 68 20 8.0 14.0 0.00 0.00 0.00 57 1021.6
20260502104537 68 351 8.0 13.0 0.00 0.00 0.00 60 1021.7
20260502103033 67 342 8.0 16.0 0.00 0.00 0.00 63 1022.1
20260502101537 67 326 7.0 13.0 0.00 0.00 0.00 64 1022.2
20260502091534 66 318 7.0 10.0 0.00 0.00 0.00 60 1022.8
20260502070037 59 0 0.0 3.0 0.00 0.00 0.00 75 1024.1
20260502064534 56 86 1.0 2.0 0.00 0.00 0.00 80 1024.1
20260502063038 54 0 0.0 2.0 0.00 0.00 0.00 82 1024.0
20260502061539 52 0 0.0 3.0 0.00 0.00 0.00 85 1023.9
20260502060033 51 0 0.0 0.0 0.00 0.00 0.00 85 1024.0
20260502054534 52 142 0.0 1.0 0.00 0.00 0.00 85 1023.9